AirNav   Get Bose SoundSport FEEE
 
 1035 users online  

NC30 Miller Air Park
Mooresville, North Carolina, USA

GOING TO MOORESVILLE?


FAA INFORMATION EFFECTIVE 15 AUGUST 2019

Location

FAA Identifier: NC30
Lat/Long: 35-36-50.4990N 080-44-29.2530W
35-36.841650N 080-44.487550W
35.6140275,-80.7414592
(estimated)
Elevation: 864 ft. / 263.3 m (surveyed)
Variation: 05W (1985)
From city: 3 miles NE of MOORESVILLE, NC
Time zone: UTC -4 (UTC -5 during Standard Time)
Zip code: 28115

Airport Operations

Airport use: Private use. Permission required prior to landing
Activation date: 09/1949
Control tower: no
ARTCC: ATLANTA CENTER
FSS: RALEIGH FLIGHT SERVICE STATION
Attendance: UNATNDD
Wind indicator: yes
Segmented circle: no

Airport Communications

WX AWOS-3 at RUQ (11 nm E): 118.175 (704-637-6197)
WX AWOS-3 at JQF (14 nm S): 133.675 (704-785-2145)
WX AWOS-3 at SVH (14 nm NW): 119.225 (704-873-1978)

Nearby radio navigation aids

VOR radial/distance  VOR name  Freq  Var
CLTr027/27.4CHARLOTTE VOR/DME115.0005W
BZMr128/28.7BARRETTS MOUNTAIN VOR/DME110.8006W

 
NDB name  Hdg/Dist  Freq  Var  ID
ROVDY246/14.227506WRU .-. ..-
STONIA045/32.526006WGHJ --. .... .---

Airport Services

Parking: hangars

Runway Information

Runway 18/36

Dimensions: 2060 x 100 ft. / 628 x 30 m
Surface: turf, in fair condition
RUNWAY 18  RUNWAY 36
Traffic pattern: leftleft
Markings: nonenone
Runway end identifier lights: nono
Obstructions: 50 ft. trees, 200 ft. from runway, 4:1 slope to clear30 ft. trees, 100 ft. left of centerline

Airport Ownership and Management from official FAA records

Ownership: Privately-owned
Owner: MILLER AIR PARK
120 AIRPARK DRIVE
MOORESVILLE, NC 28115-6966
Phone 704-664-2831
Manager: PERRY MILLER
325 AIRPARK DRIVE
MOORESVILLE, NC 28115
Phone 704-664-1587
ADDITIONAL CONTACT: HOWARD MILLER 2970 HOPE VALLEY RD WINSTON-SALEM, NC 27106 336-765-6851 HOMILLER727@TRIAD.RR.COM

Airport Operational Statistics

Aircraft based on the field: 20
Single engine airplanes: 20
    
Aircraft operations: avg 54/week *
71% local general aviation
29% transient general aviation
* for 12-month period ending 13 July 1989

Additional Remarks

VFR OPERATIONS ONLY.
FOR CD CTC CHARLOTTE APCH AT 704-359-0241.

Instrument Procedures

There are no published instrument procedures at NC30.

Some nearby airports with instrument procedures:

14A - Lake Norman Airpark (8 nm W)
KRUQ - Mid-Carolina Regional Airport (11 nm E)
KJQF - Concord-Padgett Regional Airport (14 nm S)
KSVH - Statesville Regional Airport (14 nm NW)
KIPJ - Lincolnton-Lincoln County Regional Airport (22 nm W)
 
Loc | Ops | Rwys | IFR | FBO | Links
Com | Nav | Svcs | Stats | Notes
Area around NC30 (Miller Air Park)
 
Road maps at: MapQuest Bing Google
 
Aerial photo
WARNING: Photo may not be current or correct
Aerial photo of NC30 (Miller Air Park)
Photo by Bob Perkins
Photo taken 14-Sep-2012
looking north.

Do you have a better or more recent aerial photo of Miller Air Park that you would like to share? If so, please send us your photo.

 
Sectional chart

 
Airport distance calculator
Flying to Miller Air Park? Find the distance to fly.

From to NC30

Sunrise and sunset
Times for 17-Aug-2019
 Local
(UTC-4)
 Zulu
(UTC)
Morning civil twilight06:1810:18
Sunrise06:4510:45
Sunset20:0900:09
Evening civil twilight20:3600:36

Current date and time
Zulu (UTC)  17-Aug-2019 13:52:24
Local (UTC-4)  17-Aug-2019 09:52:24
 
METAR
KRUQ 
11nm E 
171335Z AUTO 00000KT 4SM BR OVC003 24/23 A3003 RMK AO2 T02390231
KSVH 
13nm NW 
171335Z AUTO 08003KT 2 1/2SM BR OVC002 24/23 A3003 RMK AO2 T02430233
KJQF 
14nm S 
171250Z 00000KT 3/4SM BR OVC001 24/23 A3004
KIPJ 
22nm W 
171335Z AUTO 09003KT 10SM CLR 27/24 A3003 RMK AO2 T02650242
TAF
KCLT 
26nm SW 
171145Z 1712/1818 01003KT 6SM BR FEW004 FEW250 TEMPO 1713/1714 BKN005 FM171400 06005KT P6SM SCT040 FM171800 08005KT P6SM VCSH SCT050 PROB30 1721/1724 TSRA BKN040CB FM180100 11003KT P6SM SCT050 BKN200 FM180500 VRB02KT P6SM FEW150
KHKY 
32nm W 
171145Z 1712/1812 30003KT P6SM SCT003 TEMPO 1712/1713 BKN003 FM171500 05004KT P6SM FEW045 SCT150 FM171800 06005KT P6SM VCTS SCT060CB PROB30 1721/1723 TSRA BKN040CB FM180100 00000KT P6SM FEW060 SCT200
NOTAMs
Click for the latest NOTAMs
NOTAMs are issued by the DoD/FAA and will open in a separate window not controlled by AirNav.

 

 
 

Would you like to see your business listed on this page?

 If your business provides an interesting product or service to pilots, flight crews, aircraft, or users of the Miller Air Park, you should consider listing it here.  To start the listing process, click on the button below
 
Add a business
 

Other Pages about Miller Air Park

Update a link
 
Copyright © AirNav, LLC. All rights reserved. Privacy Policy  Contact